RH
45 50 55 53 53 56 53 56 58 53 59 67 68 69 69 68 70 73 67 63 65 61 54 56 59 56 32 29 30 38 37 38 37 52 45 50 54 43 39 38 30 30 41
49 54 54 51 51 45 50 50 56 59 56 66 69 70 70 67 69 72 69 60 65 65 63 59 54 38 52 53 63 79 69 66 55 64 57 52 51 50 48 46 29 21 29
49 48 46 47 44 43 43 45 50 59 62 55 66 72 74 69 70 70 70 66 64 61 60 60 54 51 54 38 51 57 63 65 75 56 48 41 43 40 47 44 38 40 26
42 43 46 46 46 40 44 50 46 57 61 62 62 67 70 69 68 67 68 67 67 60 59 57 52 51 54 57 47 58 60 65 56 40 38 40 40 48 37 32 34 32 29
52 52 53 52 50 52 59 58 56 56 60 63 66 67 68 65 75 79 70 69 72 70 66 59 48 50 63 60 38 49 63 54 43 32 32 33 35 36 38 33 33 34 43
52 53 57 64 65 64 67 66 70 67 66 67 69 70 70 94 95 94 94 97 95 95 92 75 54 65 63 72 69 69 61 58 53 32 30 34 54 40 36 34 35 36 37
61 58 61 65 69 71 68 69 70 70 70 73 73 80 97 96 95 95 92 91 91 91 82 68 51 37 59 53 72 69 63 57 62 52 49 46 51 48 49 55 55 50 42
60 62 63 67 69 70 71 72 73 72 75 81 83 93 96 92 96 96 97 96 84 77 73 67 68 56 55 56 53 53 47 41 42 31 44 46 46 49 55 50 59 62 49
57 60 63 65 68 69 72 73 72 72 77 88 92 96 93 97 98 97 98 96 76 75 73 68 70 53 74 74 55 55 51 45 68 72 76 79 77 75 68 42 38 36 31
73 72 69 68 71 72 71 74 72 81 94 92 96 94 91 94 97 93 96 80 76 68 81 74 82 60 85 80 58 56 50 45 40 44 49 58 68 56 81 59 38 36 33
80 75 79 76 74 73 74 76 83 93 97 98 98 96 89 88 90 99 96 79 71 72 76 65 67 84 85 82 77 51 44 42 53 42 38 34 35 35 35 46 47 44 37
84 82 87 89 82 82 86 87 90 97 98 99 98 97 92 78 96 98 98 95 88 79 67 68 74 87 85 85 71 78 74 67 33 33 31 30 30 31 31 35 48 52 46
86 86 86 84 82 84 93 96 97 98 98 99 99 97 98 97 99 100 99 99 94 84 58 73 81 89 87 82 83 83 84 37 33 33 32 31 32 34 55 55 59 63 67
86 89 90 88 89 82 79 83 89 93 94 96 98 97 99 99 95 99 99 87 95 91 92 90 77 67 66 56 61 56 31 33 33 31 31 32 35 39 40 38 39 32 37
81 84 84 84 82 81 78 73 66 74 72 66 77 87 96 98 92 82 79 78 72 83 97 95 79 52 49 41 37 33 30 32 34 33 34 36 38 39 38 36 37 36 40
69 59 63 65 59 57 61 67 98 95 100 100 100 83 77 93 100 100 99 98 100 97 95 95 81 45 42 37 35 35 34 42 35 33 36 40 42 38 35 32 34 40 56
62 63 51 58 51 54 52 51 57 79 100 100 100 100 100 99 100 100 100 100 98 99 97 91 51 41 40 38 36 34 34 33 42 38 38 40 37 35 38 33 36 64 66
64 98 52 47 45 46 46 46 40 45 49 59 92 91 99 100 100 100 100 100 99 99 94 60 43 44 42 42 60 44 29 35 38 39 39 36 36 35 34 36 50 64 50
60 48 50 47 46 53 46 45 42 44 44 46 60 79 85 96 99 99 99 86 94 89 64 52 54 54 70 70 62 48 46 38 38 38 37 38 35 36 41 44 51 79 66
56 84 77 47 43 45 41 43 44 51 47 44 48 49 60 73 67 77 90 92 93 64 55 65 81 77 67 76 89 65 43 40 41 38 38 37 42 44 40 40 40 40 40
41 45 70 45 40 36 36 40 47 53 46 42 40 55 77 57 56 64 73 78 85 55 61 81 70 58 86 78 55 40 36 35 40 38 37 43 44 38 42 39 34 32 32
42 44 42 41 38 43 44 44 50 53 45 44 41 64 96 61 53 64 68 81 81 91 93 79 75 76 69 62 44 38 35 36 36 39 39 38 40 38 36 34 34 33 34
39 38 39 44 60 72 53 46 48 48 45 48 47 51 58 54 57 60 65 69 86 96 95 96 96 86 54 41 35 38 39 36 38 36 36 37 37 35 34 34 34 34 34
39 43 38 39 64 46 42 43 46 67 52 58 54 62 54 53 56 61 64 64 89 91 92 89 56 44 42 37 39 38 38 37 36 38 37 36 36 48 36 35 32 35 34
38 40 43 45 47 45 44 45 41 43 44 50 64 83 66 58 65 64 86 90 84 87 88 86 48 45 46 45 41 41 86 98 50 75 38 40 40 42 35 32 34 33 35
44 46 45 46 46 45 44 44 41 40 40 47 63 86 88 86 82 92 94 92 90 96 81 50 46 44 48 44 45 86 99 97 63 98 39 36 35 32 32 34 36 31 31
Wind_Speed
14 14 14 14 14 13 12 12 12 11 10 10 9 9 9 9 9 8 5 5 5 3 2 3 4 2 3 2 2 4 4 5 5 3 4 6 6 5 4 1 1 2 7
14 14 15 14 13 14 14 14 12 12 12 11 11 10 10 10 10 10 9 7 7 6 5 5 5 4 2 2 3 5 6 6 7 5 5 7 6 5 2 1 4 3 3
13 14 14 14 14 15 15 15 14 13 13 13 12 12 11 11 11 10 9 8 9 8 6 5 5 5 4 3 3 2 2 2 1 5 5 5 6 5 5 2 3 3 6
13 13 14 15 15 15 14 14 14 13 14 14 14 13 12 11 11 10 9 7 7 6 7 7 6 7 6 6 5 5 3 3 2 3 5 5 6 4 3 3 5 2 3
12 12 13 13 13 13 12 13 14 13 13 13 12 12 11 10 7 7 7 3 3 6 5 6 8 7 5 5 5 5 5 2 6 4 4 4 5 5 3 1 2 2 6
13 13 12 12 12 12 12 13 13 13 12 11 11 11 12 7 15 16 12 9 11 9 5 7 5 8 7 5 0 5 3 4 4 4 4 4 3 4 3 3 3 3 3
13 13 12 12 13 12 12 12 12 11 11 11 10 9 12 12 16 9 11 4 3 7 11 9 10 8 11 9 6 6 4 2 3 3 2 3 5 3 2 4 3 4 5
10 11 11 11 12 11 11 11 10 10 11 10 10 13 15 12 15 8 2 7 8 10 10 10 9 12 12 11 10 9 8 8 7 6 5 4 4 4 4 4 3 5 9
7 8 8 9 9 8 9 9 8 8 8 10 12 17 18 14 15 22 22 15 11 11 10 10 8 10 11 10 12 9 7 6 6 4 4 4 4 4 6 7 7 5 6
7 5 4 5 6 7 7 7 6 4 9 9 13 16 19 18 24 25 2 9 11 10 8 9 10 12 15 13 10 8 7 6 5 8 7 6 6 8 8 9 7 7 7
10 6 6 4 1 3 4 2 4 8 10 11 13 14 18 16 16 10 10 8 8 9 7 10 9 12 16 14 10 7 5 6 5 6 6 6 7 8 9 10 7 7 8
10 7 5 5 3 3 4 4 5 7 8 10 12 11 11 14 8 14 15 10 9 7 10 8 7 15 15 12 9 10 7 4 6 7 5 5 5 4 5 4 4 7 8
7 6 5 5 5 5 6 7 7 5 5 6 6 7 8 6 5 11 12 13 12 8 7 8 12 16 13 10 3 10 8 7 7 6 5 5 4 4 4 6 6 4 6
4 3 4 4 4 6 5 5 6 6 5 4 3 4 4 4 5 5 5 6 6 6 9 8 10 12 12 9 10 7 8 8 6 6 6 5 4 5 5 4 6 6 5
2 3 4 4 4 4 4 4 4 4 2 6 8 8 7 6 7 9 10 9 10 9 8 4 6 11 11 10 10 10 9 8 7 8 8 6 6 4 5 3 6 6 5
5 5 4 4 3 4 4 5 13 10 8 10 9 4 3 5 9 12 9 11 15 17 7 7 9 11 11 10 9 8 8 7 7 7 6 5 6 6 6 6 4 6 4
4 3 5 4 4 4 4 4 5 6 9 8 6 6 6 5 8 9 11 13 16 13 5 9 11 10 9 8 7 7 7 7 3 5 6 5 5 6 4 5 5 1 3
3 4 3 2 2 3 2 2 2 3 5 7 7 6 5 5 7 10 12 12 6 4 7 10 9 6 5 5 1 4 4 4 5 5 4 5 5 6 6 6 3 4 6
5 4 6 3 3 2 3 3 3 2 4 3 6 3 8 8 7 7 4 6 8 10 10 5 6 5 4 2 2 0 1 3 3 3 4 4 5 5 5 3 1 1 3
6 2 2 4 4 5 4 4 3 4 5 4 4 4 8 7 7 8 5 3 4 6 8 7 4 4 4 4 4 6 6 5 5 4 3 3 3 4 4 1 2 3 5
5 5 5 7 6 5 5 4 3 6 6 5 5 6 7 7 6 7 9 6 4 7 8 5 5 6 4 4 7 5 4 3 2 3 3 3 1 2 2 1 4 4 5
5 4 5 6 6 4 6 5 3 6 6 5 4 9 8 8 4 6 8 5 6 4 4 5 4 4 1 2 4 5 4 2 3 3 2 2 3 3 1 2 3 3 4
6 6 6 6 6 2 4 5 4 5 6 5 5 5 8 7 5 6 7 8 7 5 4 5 5 5 9 7 5 3 2 3 3 3 3 3 3 1 1 2 3 4 6
6 6 6 4 6 5 4 4 4 3 5 5 4 5 5 6 6 7 7 8 8 7 5 5 9 10 7 5 5 4 4 4 4 4 2 2 2 4 3 2 3 6 7
5 4 4 4 4 5 3 5 4 5 4 3 4 3 5 3 5 9 7 7 9 8 8 4 5 7 9 7 5 8 9 10 5 5 3 2 1 2 2 4 5 6 7
4 4 4 4 4 4 4 4 5 5 5 3 5 5 5 5 7 8 8 9 9 8 9 9 9 11 11 9 9 11 7 5 5 6 1 3 2 1 3 4 5 5 6
Wind_Direction
202 205 211 208 208 209 215 218 220 222 218 218 213 210 208 200 197 200 222 146 198 203 263 215 203 220 277 257 318 331 294 276 268 114 141 137 167 211 129 357 307 286 121
203 208 211 213 209 211 217 219 217 218 217 214 215 213 214 207 198 201 202 186 200 207 208 228 232 197 195 68 37 14 7 350 327 152 129 171 192 170 150 248 318 337 328
203 210 219 214 214 217 219 221 214 216 217 214 212 214 211 209 204 202 203 198 206 212 210 220 231 191 169 127 106 101 74 57 342 192 178 173 159 173 162 228 286 337 251
208 212 222 221 219 220 221 221 220 214 218 217 217 219 215 208 199 198 192 202 222 218 218 207 211 205 172 168 166 152 153 206 171 199 168 169 197 155 259 272 205 198 2
210 222 227 232 229 221 224 219 221 223 220 224 219 219 216 208 154 175 172 141 252 239 238 222 210 193 144 193 185 186 131 189 206 219 204 195 189 194 225 74 282 307 173
208 215 221 226 232 230 224 220 219 219 223 222 221 213 210 107 108 107 126 172 199 179 205 214 197 154 171 181 103 82 137 208 265 271 202 224 94 216 176 282 282 302 306
212 212 214 217 223 228 231 233 230 224 223 215 211 192 123 134 132 139 184 195 207 231 212 180 203 188 171 176 155 133 105 60 358 220 254 245 160 224 353 240 199 290 289
236 233 221 220 225 226 226 229 228 219 210 189 179 139 138 138 144 141 70 274 236 244 225 209 220 160 183 177 171 178 165 161 160 191 165 175 243 180 237 247 284 265 243
261 257 248 243 243 239 237 234 228 219 207 152 143 147 149 151 177 177 181 202 220 215 204 213 212 183 157 170 187 176 177 175 131 50 7 354 357 330 310 287 237 257 288
7 343 291 255 244 241 231 221 214 198 136 148 156 161 167 178 201 200 219 146 195 203 173 193 203 205 158 192 203 179 180 181 199 164 194 212 225 220 230 253 289 291 303
339 19 30 20 170 191 183 186 150 124 144 151 157 174 185 186 205 152 193 174 204 191 174 192 185 164 171 191 232 190 181 168 169 220 216 218 200 216 215 204 248 285 292
335 358 48 55 46 70 118 111 112 131 143 154 169 183 197 205 225 177 204 195 201 189 208 171 164 167 177 184 202 116 122 199 204 212 229 243 259 271 277 281 280 278 292
335 345 31 54 85 91 102 107 105 116 147 156 168 189 210 228 179 195 196 200 195 214 196 151 153 164 163 180 196 136 166 207 222 230 248 264 280 317 317 253 225 247 256
307 350 48 65 84 107 115 117 120 139 152 147 176 188 152 183 182 175 191 195 168 113 102 125 167 170 193 175 151 175 211 218 230 243 262 287 293 266 264 287 293 287 255
236 167 124 112 118 106 86 73 112 111 84 163 167 167 176 198 218 195 191 181 181 155 119 105 174 176 186 181 186 191 205 213 225 239 250 272 294 279 273 290 289 287 265
202 178 123 155 137 127 135 109 51 46 43 36 40 41 131 113 143 145 168 158 137 147 133 169 203 189 188 191 192 192 206 211 237 247 261 275 268 276 302 310 262 281 319
253 149 163 173 154 169 161 163 135 89 64 51 46 46 28 98 158 150 143 144 152 134 172 208 201 190 189 192 195 201 215 212 212 253 262 262 264 283 240 289 299 238 297
230 49 224 187 171 165 214 209 261 190 185 162 62 47 50 133 128 133 129 114 133 214 233 208 190 174 163 173 257 222 203 176 210 251 246 263 293 302 298 291 359 284 303
225 218 221 244 198 286 219 236 252 253 275 142 132 157 89 65 90 123 152 163 164 201 204 145 124 148 146 179 204 22 300 234 254 246 252 287 301 287 284 336 224 268 295
215 209 284 237 210 222 227 241 237 255 249 242 203 172 153 171 174 171 200 202 217 202 152 147 125 132 141 97 81 240 211 196 193 223 267 294 277 280 297 310 273 239 236
229 170 228 239 237 224 240 239 230 254 244 251 226 147 167 213 180 189 182 184 203 172 157 124 129 139 143 144 236 214 208 187 173 251 233 213 259 239 226 87 292 322 333
248 211 242 249 249 230 257 250 209 260 263 250 233 121 158 230 181 175 174 187 155 143 110 123 112 94 24 263 231 212 171 177 208 205 166 162 170 165 212 281 312 310 316
251 258 230 224 236 222 206 251 227 236 251 245 262 163 180 216 182 173 175 163 138 117 95 91 97 150 220 217 186 145 178 181 146 159 148 154 172 160 260 291 328 333 347
248 236 258 223 205 239 233 211 234 224 300 267 255 269 197 202 182 163 168 147 135 127 121 157 206 207 179 160 140 153 133 134 144 127 139 139 135 157 239 270 312 348 326
247 216 222 219 211 228 195 249 262 258 231 236 236 226 261 193 164 157 139 138 136 130 127 219 216 173 152 157 154 105 73 39 53 22 155 118 172 176 325 311 355 329 352
245 230 229 228 223 243 252 270 269 267 262 207 185 189 169 183 149 138 143 147 148 134 179 199 163 162 148 142 122 97 98 76 83 31 360 159 187 225 2 340 1 329 30